• Em Portugal
  • Lista de países
  • Para 7 dias
  • Temperatura da água
  • Mapas de satélite
  • Mapa do tempo
  • Widgets de tempo
  • user-avatar
    Iniciar Sessão

    Previsão horária em Glinno

    Hoje, 16 Julho, Segunda-feira

    Tempo Temperatura Precipitação Vento Pressão Humidade
    00:00 +14°C° 0 mm 1 m/s 712 mmHg 77%
    01:00 +14°C° 0 mm 1 m/s 711 mmHg 74%
    02:00 +13°C° 0 mm 1 m/s 711 mmHg 74%
    03:00 +13°C° 0 mm 1 m/s 711 mmHg 74%
    04:00 +13°C° 0 mm 1 m/s 711 mmHg 75%
    05:00 +15°C° 0 mm 1 m/s 711 mmHg 72%
    06:00 +16°C° 0 mm 1 m/s 712 mmHg 68%
    07:00 +19°C° 0 mm 1 m/s 712 mmHg 66%
    08:00 +20°C° 0 mm 2 m/s 712 mmHg 62%
    09:00 +21°C° 0 mm 2 m/s 712 mmHg 57%
    10:00 +22°C° 0 mm 3 m/s 712 mmHg 53%
    11:00 +24°C° 0 mm 2 m/s 712 mmHg 51%
    12:00 +25°C° 0 mm 2 m/s 711 mmHg 49%
    13:00 +25°C° 0 mm 2 m/s 711 mmHg 46%
    14:00 +25°C° 0,1 mm 2 m/s 711 mmHg 48%
    15:00 +25°C° 0,1 mm 2 m/s 711 mmHg 49%
    16:00 +25°C° 0,1 mm 2 m/s 710 mmHg 50%
    17:00 +24°C° 0,1 mm 2 m/s 710 mmHg 57%
    18:00 +23°C° 0,1 mm 2 m/s 710 mmHg 63%
    19:00 +21°C° 0,1 mm 1 m/s 709 mmHg 69%
    20:00 +20°C° 0,2 mm 1 m/s 709 mmHg 72%
    21:00 +19°C° 0,2 mm 1 m/s 709 mmHg 74%
    22:00 +16°C° 0,2 mm 1 m/s 709 mmHg 77%
    23:00 +16°C° 0,2 mm 1 m/s 709 mmHg 79%

    Amanhã, 17 Julho, Terça-feira

    Tempo Temperatura Precipitação Vento Pressão Humidade
    00:00 +15°C° 0,2 mm 2 m/s 709 mmHg 82%
    01:00 +15°C° 0,2 mm 2 m/s 708 mmHg 85%
    02:00 +14°C° 0 mm 2 m/s 708 mmHg 86%
    03:00 +14°C° 0 mm 2 m/s 708 mmHg 88%
    04:00 +14°C° 0 mm 2 m/s 708 mmHg 89%
    05:00 +14°C° 0 mm 3 m/s 708 mmHg 86%
    06:00 +16°C° 0 mm 3 m/s 708 mmHg 84%
    07:00 +18°C° 0 mm 4 m/s 709 mmHg 81%
    08:00 +18°C° 0,3 mm 4 m/s 709 mmHg 80%
    09:00 +19°C° 0,3 mm 5 m/s 709 mmHg 79%
    10:00 +19°C° 0,3 mm 5 m/s 709 mmHg 78%
    11:00 +19°C° 0,5 mm 6 m/s 709 mmHg 77%
    12:00 +19°C° 0,5 mm 6 m/s 709 mmHg 77%
    13:00 +18°C° 0,5 mm 7 m/s 708 mmHg 77%
    14:00 +18°C° 0,1 mm 7 m/s 708 mmHg 77%
    15:00 +17°C° 0,1 mm 7 m/s 708 mmHg 77%
    16:00 +17°C° 0,1 mm 7 m/s 708 mmHg 77%
    17:00 +16°C° 0,1 mm 6 m/s 708 mmHg 80%
    18:00 +16°C° 0,1 mm 5 m/s 708 mmHg 83%
    19:00 +15°C° 0,1 mm 4 m/s 708 mmHg 86%
    20:00 +14°C° 0 mm 4 m/s 708 mmHg 88%
    21:00 +14°C° 0 mm 4 m/s 708 mmHg 89%
    22:00 +13°C° 0 mm 4 m/s 708 mmHg 91%
    23:00 +13°C° 0 mm 4 m/s 708 mmHg 92%

    Depois de amanhã, 18 Julho, Quarta-feira

    Tempo Temperatura Precipitação Vento Pressão Humidade
    00:00 +13°C° 0 mm 4 m/s 708 mmHg 92%
    01:00 +13°C° 0 mm 4 m/s 708 mmHg 92%
    02:00 +13°C° 0,1 mm 4 m/s 708 mmHg 92%
    03:00 +13°C° 0,1 mm 4 m/s 708 mmHg 92%
    04:00 +14°C° 0,1 mm 5 m/s 708 mmHg 92%
    05:00 +14°C° 0,2 mm 5 m/s 709 mmHg 90%
    06:00 +15°C° 0,2 mm 5 m/s 709 mmHg 88%
    07:00 +15°C° 0,2 mm 5 m/s 709 mmHg 86%
    08:00 +16°C° 0,5 mm 6 m/s 709 mmHg 82%
    09:00 +17°C° 0,5 mm 6 m/s 709 mmHg 78%
    10:00 +17°C° 0,5 mm 6 m/s 710 mmHg 74%
    11:00 +19°C° 0,8 mm 6 m/s 710 mmHg 74%
    12:00 +19°C° 0,8 mm 5 m/s 710 mmHg 74%
    13:00 +20°C° 0,8 mm 5 m/s 710 mmHg 74%
    14:00 +20°C° 0,6 mm 4 m/s 710 mmHg 74%
    15:00 +20°C° 0,6 mm 4 m/s 710 mmHg 74%
    16:00 +20°C° 0,6 mm 4 m/s 710 mmHg 74%
    17:00 +19°C° 0,3 mm 3 m/s 710 mmHg 77%
    18:00 +19°C° 0,3 mm 3 m/s 710 mmHg 79%
    19:00 +18°C° 0,3 mm 3 m/s 710 mmHg 82%
    20:00 +17°C° 0,1 mm 3 m/s 710 mmHg 84%
    21:00 +17°C° 0,1 mm 3 m/s 710 mmHg 86%
    22:00 +16°C° 0,1 mm 3 m/s 710 mmHg 89%
    23:00 +16°C° 0 mm 3 m/s 710 mmHg 90%

    19 Julho, Quinta-feira

    Tempo Temperatura Precipitação Vento Pressão Humidade
    00:00 +16°C° 0 mm 3 m/s 710 mmHg 90%
    01:00 +14°C° 0 mm 3 m/s 710 mmHg 91%
    02:00 +14°C° 0,1 mm 3 m/s 710 mmHg 92%
    03:00 +14°C° 0,1 mm 4 m/s 710 mmHg 92%
    04:00 +14°C° 0,1 mm 4 m/s 710 mmHg 93%
    05:00 +14°C° 0,1 mm 4 m/s 711 mmHg 91%
    06:00 +15°C° 0,1 mm 5 m/s 711 mmHg 88%
    07:00 +15°C° 0,1 mm 5 m/s 711 mmHg 86%
    08:00 +16°C° 0,3 mm 5 m/s 711 mmHg 83%
    09:00 +16°C° 0,3 mm 5 m/s 711 mmHg 80%
    10:00 +17°C° 0,3 mm 5 m/s 712 mmHg 77%
    11:00 +19°C° 0,3 mm 5 m/s 712 mmHg 74%
    12:00 +20°C° 0,3 mm 5 m/s 712 mmHg 71%
    13:00 +20°C° 0,3 mm 5 m/s 712 mmHg 67%
    14:00 +21°C° 0,1 mm 5 m/s 712 mmHg 65%
    15:00 +21°C° 0,1 mm 4 m/s 712 mmHg 63%
    16:00 +22°C° 0,1 mm 4 m/s 712 mmHg 61%
    17:00 +21°C° 0 mm 4 m/s 712 mmHg 67%
    18:00 +20°C° 0 mm 3 m/s 712 mmHg 72%
    19:00 +19°C° 0 mm 2 m/s 712 mmHg 77%
    20:00 +18°C° 0 mm 2 m/s 712 mmHg 81%
    21:00 +17°C° 0 mm 2 m/s 712 mmHg 85%
    22:00 +15°C° 0 mm 2 m/s 712 mmHg 89%
    23:00 +15°C° 0 mm 2 m/s 712 mmHg 89%

    20 Julho, Sexta-feira

    Tempo Temperatura Precipitação Vento Pressão Humidade
    00:00 +14°C° 0 mm 2 m/s 712 mmHg 90%
    01:00 +14°C° 0 mm 2 m/s 712 mmHg 91%
    02:00 +13°C° 0 mm 2 m/s 711 mmHg 90%
    03:00 +13°C° 0 mm 2 m/s 711 mmHg 90%
    04:00 +12°C° 0 mm 2 m/s 711 mmHg 89%
    05:00 +14°C° 0 mm 2 m/s 711 mmHg 83%
    06:00 +15°C° 0 mm 2 m/s 712 mmHg 77%
    07:00 +17°C° 0 mm 2 m/s 712 mmHg 70%
    08:00 +18°C° 0 mm 3 m/s 712 mmHg 63%
    09:00 +19°C° 0 mm 3 m/s 712 mmHg 55%
    10:00 +21°C° 0 mm 3 m/s 712 mmHg 48%
    11:00 +23°C° 0 mm 2 m/s 712 mmHg 45%
    12:00 +24°C° 0 mm 2 m/s 712 mmHg 42%
    13:00 +25°C° 0 mm 2 m/s 712 mmHg 39%
    14:00 +25°C° 0 mm 2 m/s 711 mmHg 40%
    15:00 +25°C° 0 mm 2 m/s 711 mmHg 40%
    16:00 +25°C° 0 mm 2 m/s 711 mmHg 40%
    17:00 +23°C° 0 mm 1 m/s 711 mmHg 46%
    18:00 +22°C° 0 mm 1 m/s 710 mmHg 53%
    19:00 +20°C° 0 mm 1 m/s 710 mmHg 59%
    20:00 +19°C° 0 mm 1 m/s 710 mmHg 62%
    21:00 +16°C° 0 mm 1 m/s 710 mmHg 64%
    22:00 +15°C° 0 mm 1 m/s 710 mmHg 67%
    23:00 +14°C° 0 mm 1 m/s 710 mmHg 67%

    21 Julho, Sábado

    Tempo Temperatura Precipitação Vento Pressão Humidade
    00:00 +14°C° 0 mm 1 m/s 710 mmHg 68%
    01:00 +14°C° 0 mm 1 m/s 709 mmHg 69%
    02:00 +13°C° 0 mm 1 m/s 709 mmHg 69%
    03:00 +13°C° 0 mm 1 m/s 709 mmHg 70%
    04:00 +13°C° 0 mm 1 m/s 709 mmHg 70%
    05:00 +15°C° 0 mm 1 m/s 709 mmHg 67%
    06:00 +16°C° 0 mm 1 m/s 710 mmHg 63%
    07:00 +17°C° 0 mm 0 m/s 710 mmHg 60%
    08:00 +21°C° 0 mm 1 m/s 710 mmHg 56%
    09:00 +22°C° 0 mm 1 m/s 710 mmHg 53%
    10:00 +23°C° 0 mm 1 m/s 710 mmHg 50%
    11:00 +24°C° 0 mm 1 m/s 710 mmHg 49%
    12:00 +24°C° 0 mm 1 m/s 710 mmHg 47%
    13:00 +25°C° 0 mm 1 m/s 710 mmHg 46%
    14:00 +25°C° 0 mm 1 m/s 710 mmHg 46%
    15:00 +25°C° 0 mm 1 m/s 709 mmHg 47%
    16:00 +24°C° 0 mm 1 m/s 709 mmHg 48%
    17:00 +23°C° 0 mm 1 m/s 709 mmHg 54%
    18:00 +22°C° 0 mm 1 m/s 709 mmHg 61%
    19:00 +20°C° 0 mm 2 m/s 709 mmHg 67%
    20:00 +20°C° 0 mm 1 m/s 709 mmHg 71%
    21:00 +18°C° 0 mm 1 m/s 709 mmHg 75%
    22:00 +16°C° 0 mm 1 m/s 708 mmHg 79%
    23:00 +15°C° 0 mm 1 m/s 709 mmHg 80%
    Mostrar mais